Disclaimer

Please do not use the information listed here in-flight or in-navigation, as they are not provided to us by the airports but are provided by volunteers, so they might be outdated.

Search


Regions


Airport information page

Radio informations:
Tower (TWR) - 118.125 MHz
LANGEN RADAR - 133.775 MHz
LANGEN INFO - 129.875 MHz

Airport informations:
Latitude: 51° 13' 49.28" N
Longitude: 006° 30' 16.18" E
Elevation: 125 feet - 38 meters
Operating hours: Remarks
Operating agency: Civil government, landing fees and diplomatic clearance may be required
Timezone: UTC+1(+2DT) - Last Sunday in March to last Sunday in October
Fuel: Jet A1, without icing nhibitor.

100/130 MIL Spec, low lead, aviation gasoline (BLUE)

Runway information:
13/31 - 3937 x 98 feet< - >1200 x 30 meters

Recent METARs:
EDLN 151920Z 24009KT 210V290 9999 BKN045 07/04 Q1016
EDLN 151920Z 24009KT 210V290 9999 BKN045 07/04 Q1016
EDLN 151920Z 24009KT 210V290 9999 BKN045 07/04 Q1016

Airport on the map: